TimeMDT,TemperatureF,Dew PointF,Humidity,Sea Level PressureIn,VisibilityMPH,Wind Direction,Wind SpeedMPH,Gust SpeedMPH,PrecipitationIn,Events,Conditions,WindDirDegrees,DateUTC
12:53 AM,44.1,35.1,71,29.99,10.0,NNW,5.8,-,N/A,,Overcast,340,2013-05-05 06:53:00
1:53 AM,45.0,35.1,68,30.00,10.0,North,5.8,-,N/A,,Clear,10,2013-05-05 07:53:00
2:53 AM,43.0,34.0,71,30.03,10.0,North,8.1,-,N/A,,Partly Cloudy,360,2013-05-05 08:53:00
3:53 AM,42.1,34.0,73,30.01,10.0,North,9.2,-,N/A,,Clear,10,2013-05-05 09:53:00
4:53 AM,42.1,33.1,70,30.00,10.0,NNW,9.2,-,N/A,,Clear,340,2013-05-05 10:53:00
5:53 AM,41.0,33.1,73,29.98,10.0,NE,9.2,-,N/A,,Clear,50,2013-05-05 11:53:00
6:53 AM,43.0,34.0,71,29.98,10.0,NE,10.4,-,N/A,,Clear,40,2013-05-05 12:53:00
7:53 AM,43.0,34.0,71,29.99,10.0,NNE,5.8,-,N/A,,Clear,20,2013-05-05 13:53:00
8:53 AM,50.0,36.0,59,29.98,10.0,NNE,6.9,-,N/A,,Clear,30,2013-05-05 14:53:00
9:53 AM,57.0,35.1,44,29.96,10.0,NNE,11.5,-,N/A,,Clear,20,2013-05-05 15:53:00
10:53 AM,61.0,33.1,35,29.95,10.0,NNE,5.8,16.1,N/A,,Scattered Clouds,20,2013-05-05 16:53:00
12:53 PM,63.0,30.9,30,29.92,10.0,NNE,6.9,-,N/A,,Scattered Clouds,20,2013-05-05 18:53:00
1:53 PM,66.0,30.0,26,29.89,10.0,Variable,5.8,-,N/A,,Scattered Clouds,0,2013-05-05 19:53:00
2:53 PM,66.9,30.9,26,29.88,10.0,North,10.4,-,N/A,,Overcast,360,2013-05-05 20:53:00
3:53 PM,66.9,30.9,26,29.87,10.0,NE,6.9,-,N/A,,Mostly Cloudy,50,2013-05-05 21:53:00
4:53 PM,68.0,33.1,27,29.87,10.0,ENE,17.3,-,N/A,,Scattered Clouds,70,2013-05-05 22:53:00
5:53 PM,64.9,35.1,33,29.88,10.0,ENE,20.7,26.5,N/A,,Clear,70,2013-05-05 23:53:00
6:53 PM,62.1,35.1,37,29.89,10.0,ENE,16.1,-,N/A,,Scattered Clouds,70,2013-05-06 00:53:00
7:53 PM,61.0,37.9,42,29.89,10.0,ENE,9.2,-,N/A,,Clear,70,2013-05-06 01:53:00
8:53 PM,55.9,37.9,51,29.89,10.0,ENE,6.9,-,N/A,,Clear,60,2013-05-06 02:53:00
9:53 PM,55.9,34.0,44,29.88,10.0,ENE,5.8,-,N/A,,Clear,70,2013-05-06 03:53:00
10:53 PM,50.0,36.0,59,29.89,10.0,North,5.8,-,N/A,,Clear,10,2013-05-06 04:53:00
11:53 PM,44.1,33.1,65,29.91,10.0,NNW,5.8,-,N/A,,Clear,340,2013-05-06 05:53:00